Regional Weather Roundup
Issued by NWS

Home | Current Version | Previous Version | Graphics & Text | Print | Product List | Glossary On
Versions: 1 2 3 4 5 6 7 8 9 10 11 12 13 14 15 16 17 18 19 20 21 22 23 24 25 26 27 28 29 30 31 32 33 34 35 36 37 38 39 40 41 42 43 44 45 46 47 48 49 50
000
ASUS43 KMPX 181910
RWRMN
WEATHER ROUNDUP FOR MINNESOTA
NATIONAL WEATHER SERVICE TWIN CITIES/CHANHASSEN MN
200 PM CDT THU SEP 18 2014


NOTE: "FAIR" INDICATES FEW OR NO CLOUDS BELOW 12,000 FEET WITH NO
SIGNIFICANT WEATHER AND/OR OBSTRUCTIONS TO VISIBILITY. N/A MEANS
CURRENT SKY AND/OR WEATHER CONDITIONS ARE NOT AVAILABLE.

MNZ060>063-068>070-182000-
   Twin Cities Metro

CITY           SKY/WX    TMP DP  RH WIND       PRES   REMARKS
TWIN CITIES    MOSUNNY   71  57  61 SE8       30.06F
ST PAUL        SUNNY     69  57  65 SE3       30.07F
CRYSTAL        SUNNY     70  54  56 SE7       30.05F
BLAINE         MOSUNNY   70  55  60 SE12      30.07F
LAKEVILLE      MOSUNNY   72  54  53 S10       30.05F
SOUTH ST PAUL  SUNNY     69  56  62 E5        30.06F
LAKE ELMO      FAIR      68  57  68 SE7       30.08F
$$
MNZ001>005-007-008-013>017-022>024-027-028-182000-
   Northwest Minnesota

CITY           SKY/WX    TMP DP  RH WIND       PRES   REMARKS
BEMIDJI        SUNNY     62  48  60 SE10      30.00F
HALLOCK        SUNNY     66  54  63 SE15G21   29.90F
ROSEAU         SUNNY     61  54  77 E9        29.95F
WARROAD        MOSUNNY   55  50  82 E9        29.98F
THIEF RVR FALL SUNNY     70  54  56 S13       29.93F
CROOKSTON      SUNNY     70  55  60 S12       29.92F
FOSSTON        SUNNY     72  52  49 S10G18    29.95F
DETROIT LAKES  SUNNY     64  52  63 S14       29.98F
MOORHEAD       SUNNY     70  57  64 S16       29.93F
PARK RAPIDS    SUNNY     62  49  62 SE13      30.00F
MAHNOMEN       FAIR      68  53  59 S10G17    29.94F
$$
MNZ006-009>011-018-025>026-182000-
   North Central Minnesota

CITY           SKY/WX    TMP DP  RH WIND       PRES   REMARKS
BAUDETTE       CLOUDY    51  46  83 SE8       30.01F
FLAG ISLAND    CLOUDY    48  46  93 S15       29.98F
INTL FALLS     MOSUNNY   57  45  64 SE8       30.04F
WASKISH        SUNNY     61  52  72 CALM      30.01F
BIG FORK       SUNNY     61  48  63 SE6       30.04F
LONGVILLE      SUNNY     59  48  67 S9        30.04F
GRAND RAPIDS   MOSUNNY   57  45  62 SE12      30.06F
CRANE LAKE     CLOUDY    52  43  71 SE3       30.09F
ORR            MOSUNNY   57  43  58 S8        30.04F
COOK           CLOUDY    54  45  71 SE8       30.08F
WALKER         FAIR      59  48  67 SE6       30.02F
$$
MNZ012-019>021-037-182000-
   Northeast Minnesota

CITY           SKY/WX    TMP DP  RH WIND       PRES   REMARKS
DULUTH         CLOUDY    48  41  76 SE10      30.12F
ELY            CLOUDY    50  39  66 SE10      30.10F
HIBBING        SUNNY     59  45  59 SE10      30.08F
EVELETH        MOSUNNY   57  45  62 SE9       30.10F
DULUTH HARBOR  CLOUDY    50  45  81 NE10      30.15F
TWO HARBORS    CLOUDY    48  39  71 E10       30.13F
SILVER BAY     MOSUNNY   45  41  87 E9        30.14F
GRAND MARAIS     N/A     48  35  60 E6        30.19F
G MARAIS ARPRT PTSUNNY   43  32  65 SE8       30.16F
$$
MNZ029>031-032-039>041-046>048-054>057-064-182000-
   West Central Minnesota

CITY           SKY/WX    TMP DP  RH WIND       PRES   REMARKS
FERGUS FALLS   SUNNY     64  52  63 SE14      29.96F
WHEATON        SUNNY     66  57  72 SE12      29.96F
MORRIS         SUNNY     72  57  60 S18       29.96F
ALEXANDRIA     SUNNY     66  55  67 SE12      30.02F
ELBOW LAKE     FAIR      67  56  67 SE15      29.97F
WADENA         SUNNY     61  52  72 SE8       30.01F
GLENWOOD       SUNNY     70  55  60 SE12      30.02F
APPLETON       SUNNY     75  57  53 SE10G16   29.96F
BENSON         SUNNY     72  59  64 S14       29.98F
ORTONVILLE     SUNNY     72  59  64 SE10G16   29.95F
MADISON        SUNNY     79  55  44 S17       29.96F
WILLMAR        FAIR      73  54  49 S13G22    30.02F
$$
MNZ033>034-036-042>043-049>051-058-059-182000-
   Central Minnesota

CITY           SKY/WX    TMP DP  RH WIND       PRES   REMARKS
ST CLOUD       SUNNY     68  53  58 SE9       30.05F
SAUK CENTRE    FAIR      65  54  69 E8        30.03F
PAYNESVILLE    SUNNY     65  54  66 E10       30.04F
AITKIN         MOSUNNY   61  50  67 S5        30.06F
PINE RIVER     CLOUDY    54  48  82 SE10      30.08F
BRAINERD       MOSUNNY   56  49  77 VRB5      30.06F
STAPLES        MOSUNNY   59  48  67 S8        30.03F
LONG PRAIRIE   FAIR      59  52  77 SE8       30.04F
LITTLE FALLS   MOSUNNY   59  50  72 E7        30.06F
LITCHFIELD     SUNNY     72  57  60 SE8       30.04F
BUFFALO        SUNNY     69  54  57 S7        30.06F
MAPLE LAKE     SUNNY     70  58  66 SE6       30.06F
$$
MNZ037-044-045-052-053-182000-
   East Central Minnesota

CITY           SKY/WX    TMP DP  RH WIND       PRES   REMARKS
PRINCETON      SUNNY     64  54  68 NE3       30.08F
MORA           CLOUDY    55  50  82 E6        30.11F
CAMBRIDGE      MOSUNNY   64  52  63 E6        30.06F
RUSH CITY      PTSUNNY   60  53  77 CALM      30.09F
MOOSE LAKE     CLOUDY    52  46  82 SE5       30.09F
HINCKLEY       CLOUDY    55  52  88 SE5       30.11S
CLOQUET        CLOUDY    48  43  81 SE6       30.12F
MCGREGOR       CLOUDY    54  46  76 SE7       30.09F
$$
MNZ071>073-080-081-089-090-097-098-182000-
   Southwest Minnesota

CITY           SKY/WX    TMP DP  RH WIND       PRES   REMARKS
MONTEVIDEO     MOSUNNY   77  61  57 SW13      29.98F
GRANITE FALLS  MOSUNNY   75  55  49 SE14      30.00F
CANBY          MOSUNNY   76  54  46 S13G21    29.97F
MARSHALL       MOSUNNY   75  54  46 S18G24    29.98F
REDWOOD FALLS  MOSUNNY   76  54  46 S17G25    30.00F
OLIVIA         MOSUNNY   73  55  53 S12G20    30.00F
PIPESTONE      MOSUNNY   73  54  49 S12G22    30.00F
WINDOM         SUNNY     73  48  40 S13       30.02F
WORTHINGTON    SUNNY     72  52  49 SE13G18   30.03F
JACKSON        SUNNY     73  52  46 SE10G17   30.04F
TRACY          SUNNY     75  56  51 S14       30.01F
SLAYTON        MOSUNNY   74  51  45 SE12G21   30.02F
$$
MNZ065>067-074>077-082>085-091>093-182000-
   South Central Minnesota

CITY           SKY/WX    TMP DP  RH WIND       PRES   REMARKS
MANKATO        MOSUNNY   73  52  46 S12       30.04F
NEW ULM        SUNNY     73  55  53 S13       30.02F
ST JAMES       SUNNY     73  52  46 S9G16     30.04F
FAIRMONT       MOSUNNY   72  50  46 SE10      30.04F
GLENCOE        MOSUNNY   76  51  42 S6        30.03F
FARIBAULT      MOSUNNY   75  48  38 S9G16     30.06F
OWATONNA       SUNNY     73  52  46 S12       30.06F
WASECA         SUNNY     72  46  40 SE8       30.07F
ALBERT LEA     SUNNY     72  52  49 SE13      30.06F
$$
MNZ078>079-086>088-094>096-182000-
   Southeast Minnesota

CITY           SKY/WX    TMP DP  RH WIND       PRES   REMARKS
ROCHESTER      MOSUNNY   71  53  52 S8        30.09F
RED WING       SUNNY     70  55  60 E10G16    30.07F
STANTON        MOSUNNY   73  52  47 S10G16    30.05F
DODGE CENTER   MOSUNNY   72  55  56 S12       30.08F
WINONA         SUNNY     66  55  68 E9        30.11F
AUSTIN         SUNNY     70  54  56 S6        30.07F
PRESTON        MOSUNNY   69  58  66 S9        30.09F
$$
ABBREVIATIONS USED IN REMARKS
   TC - TEMPERATURES IN CELSIUS
  WCI - WIND CHILL INDEX
   HX - HEAT INDEX
  VSB - VISIBILITY
$$



USA.gov is the U.S. government's official web portal to all federal, state and local government web resources and services.